{"data":{"norad_id":64372,"intl_designator":"2025-127C","name":"STARLINK-11746 [DTC]","alt_names":[],"object_type":"PAYLOAD","status":"ACTIVE","operator":null,"country":"US","launch_date":"2025-06-13","launch_site_code":"AFETR","launch_vehicle":null,"mission":null,"orbit_class":"UNKNOWN","rcs_meters":null,"size_class":null,"mass_kg":null,"dimensions":null,"purposes":["comms"],"wikipedia_slug":null,"has_3d_model":false,"image_url":null,"decayed_at":null,"tle_current":{"epoch":"2026-09-20T12:07:16.953312Z","epoch_age_seconds":133779,"freshness":"FRESH","line1":"1 64372U 25127C   26263.50505733  .00146625  00000+0  11255-2 0  9995","line2":"2 64372  42.9998 350.0869 0002069 287.7814  72.2828 15.70852303 74149","mean_motion":15.70852303,"eccentricity":0.0002069,"inclination_deg":42.9998,"raan_deg":350.0869,"arg_perigee_deg":287.7814,"mean_anomaly_deg":72.2828,"bstar":0.0011255,"rev_number":7414,"period_min":91.669980509937,"perigee_km":355.06650942343,"apogee_km":357.85328561962,"semimajor_km":6734.5968975215,"source":"CELESTRAK","updated_at":"2026-09-21T09:00:35.321952Z"}}}